date,time,SUV Intensity [MED/Hr],UV Index,Daily total [MED],Since Last [MED]
09/10/2022,00:01:18,0.001,0.0,0.0,0.0
09/10/2022,00:02:17,0.001,0.0,0.0,0.0
09/10/2022,00:03:17,0.000,0.0,0.0,0.0
09/10/2022,00:04:18,0.000,0.0,0.0,0.0
09/10/2022,00:05:18,0.001,0.0,0.0,0.0
09/10/2022,00:06:17,-0.001,0.0,0.0,0.0
09/10/2022,00:07:18,0.000,0.0,0.0,0.0
09/10/2022,00:08:17,0.000,0.0,0.0,0.0
09/10/2022,00:09:18,0.000,0.0,0.0,0.0
09/10/2022,00:10:17,0.000,0.0,0.0,0.0
09/10/2022,00:11:18,0.001,0.0,0.0,0.0
09/10/2022,00:12:17,0.000,0.0,0.0,0.0
09/10/2022,00:13:18,0.000,0.0,0.0,0.0
09/10/2022,00:14:18,0.001,0.0,0.0,0.0
09/10/2022,00:15:17,0.000,0.0,0.0,0.0
09/10/2022,00:16:17,-0.000,0.0,0.0,0.0
09/10/2022,00:17:18,0.000,0.0,0.0,0.0
09/10/2022,00:18:17,0.001,0.0,0.0,0.0
09/10/2022,00:19:17,0.001,0.0,0.0,0.0
09/10/2022,00:20:18,0.001,0.0,0.0,0.0
09/10/2022,00:21:17,-0.001,0.0,0.0,0.0
09/10/2022,00:22:18,0.000,0.0,0.0,0.0
09/10/2022,00:23:17,0.000,0.0,0.0,0.0
09/10/2022,00:24:17,0.000,0.0,0.0,0.0
09/10/2022,00:25:18,0.000,0.0,0.0,0.0
09/10/2022,00:26:17,-0.000,0.0,0.0,0.0
09/10/2022,00:27:18,-0.001,0.0,0.0,0.0
09/10/2022,00:28:17,0.000,0.0,0.0,0.0
09/10/2022,00:29:18,0.000,0.0,0.0,0.0
09/10/2022,00:30:17,0.000,0.0,0.0,0.0
09/10/2022,00:31:17,-0.000,0.0,0.0,0.0
09/10/2022,00:32:17,0.000,0.0,0.0,0.0
09/10/2022,00:33:18,-0.001,0.0,0.0,0.0
09/10/2022,00:34:18,0.000,0.0,0.0,0.0
09/10/2022,00:35:18,0.000,0.0,0.0,0.0
09/10/2022,00:36:17,0.000,0.0,0.0,0.0
09/10/2022,00:37:17,0.000,0.0,0.0,0.0
09/10/2022,00:38:18,0.000,0.0,0.0,0.0
09/10/2022,00:39:17,0.000,0.0,0.0,0.0
09/10/2022,00:40:17,0.000,0.0,0.0,0.0
09/10/2022,00:41:18,0.001,0.0,0.0,0.0
09/10/2022,00:42:18,0.000,0.0,0.0,0.0
09/10/2022,00:43:17,0.000,0.0,0.0,0.0
09/10/2022,00:44:18,0.000,0.0,0.0,0.0
09/10/2022,00:45:18,0.000,0.0,0.0,0.0
09/10/2022,00:46:19,0.000,0.0,0.0,0.0
09/10/2022,00:47:17,0.000,0.0,0.0,0.0
09/10/2022,00:48:17,-0.001,0.0,0.0,0.0
09/10/2022,00:49:18,0.000,0.0,0.0,0.0
09/10/2022,00:50:17,0.000,0.0,0.0,0.0
09/10/2022,00:51:18,0.000,0.0,0.0,0.0
09/10/2022,00:52:17,0.000,0.0,0.0,0.0
09/10/2022,00:53:17,0.001,0.0,0.0,0.0
09/10/2022,00:54:17,0.001,0.0,0.0,0.0
09/10/2022,00:55:18,0.000,0.0,0.0,0.0
09/10/2022,00:56:17,-0.001,0.0,0.0,0.0
09/10/2022,00:57:17,0.000,0.0,0.0,0.0
09/10/2022,00:58:17,0.001,0.0,0.0,0.0
09/10/2022,00:59:18,0.000,0.0,0.0,0.0
09/10/2022,01:00:18,-0.000,0.0,0.0,0.0
09/10/2022,01:01:18,0.000,0.0,0.0,0.0
09/10/2022,01:02:17,0.000,0.0,0.0,0.0
09/10/2022,01:03:18,0.000,0.0,0.0,0.0
09/10/2022,01:04:17,0.000,0.0,0.0,0.0
09/10/2022,01:05:18,0.000,0.0,0.0,0.0
09/10/2022,01:06:17,0.000,0.0,0.0,0.0
09/10/2022,01:07:17,0.000,0.0,0.0,0.0
09/10/2022,01:08:17,0.000,0.0,0.0,0.0
09/10/2022,01:09:18,0.000,0.0,0.0,0.0
09/10/2022,01:10:17,0.001,0.0,0.0,0.0
09/10/2022,01:11:17,0.000,0.0,0.0,0.0
09/10/2022,01:12:18,0.000,0.0,0.0,0.0
09/10/2022,01:13:17,0.001,0.0,0.0,0.0
09/10/2022,01:14:18,0.000,0.0,0.0,0.0
09/10/2022,01:15:18,-0.000,0.0,0.0,0.0
09/10/2022,01:16:17,0.001,0.0,0.0,0.0
09/10/2022,01:17:18,0.001,0.0,0.0,0.0
09/10/2022,01:18:18,0.000,0.0,0.0,0.0
09/10/2022,01:19:17,0.000,0.0,0.0,0.0
09/10/2022,01:20:18,0.000,0.0,0.0,0.0
09/10/2022,01:21:17,0.000,0.0,0.0,0.0
09/10/2022,01:23:35,0.000,0.0,0.0,0.0
09/10/2022,01:24:18,0.000,0.0,0.0,0.0
09/10/2022,01:25:18,0.000,0.0,0.0,0.0
09/10/2022,01:26:18,-0.000,0.0,0.0,0.0
09/10/2022,01:27:17,0.000,0.0,0.0,0.0
09/10/2022,01:28:18,0.000,0.0,0.0,0.0
09/10/2022,01:29:18,0.001,0.0,0.0,0.0
09/10/2022,01:30:17,0.000,0.0,0.0,0.0
09/10/2022,01:31:17,0.000,0.0,0.0,0.0
09/10/2022,01:32:17,-0.001,0.0,0.0,0.0
09/10/2022,01:33:18,0.001,0.0,0.0,0.0
09/10/2022,01:34:18,0.001,0.0,0.0,0.0
09/10/2022,01:35:18,0.001,0.0,0.0,0.0
09/10/2022,01:36:18,0.000,0.0,0.0,0.0
09/10/2022,01:37:17,0.000,0.0,0.0,0.0
09/10/2022,01:38:17,0.000,0.0,0.0,0.0
09/10/2022,01:39:18,0.000,0.0,0.0,0.0
09/10/2022,01:40:17,0.001,0.0,0.0,0.0
09/10/2022,01:41:18,0.000,0.0,0.0,0.0
09/10/2022,01:42:17,0.000,0.0,0.0,0.0
09/10/2022,01:43:17,0.001,0.0,0.0,0.0
09/10/2022,01:44:18,0.000,0.0,0.0,0.0
09/10/2022,01:45:17,0.000,0.0,0.0,0.0
09/10/2022,01:46:18,0.001,0.0,0.0,0.0
09/10/2022,01:47:18,0.000,0.0,0.0,0.0
09/10/2022,01:48:18,-0.000,0.0,0.0,0.0
09/10/2022,01:49:18,0.000,0.0,0.0,0.0
09/10/2022,01:50:17,0.000,0.0,0.0,0.0
09/10/2022,01:51:18,0.000,0.0,0.0,0.0
09/10/2022,01:52:17,0.000,0.0,0.0,0.0
09/10/2022,01:53:17,0.000,0.0,0.0,0.0
09/10/2022,01:54:18,0.000,0.0,0.0,0.0
09/10/2022,01:55:17,0.001,0.0,0.0,0.0
09/10/2022,01:56:18,0.000,0.0,0.0,0.0
09/10/2022,01:57:18,0.000,0.0,0.0,0.0
09/10/2022,01:58:18,0.000,0.0,0.0,0.0
09/10/2022,01:59:18,0.001,0.0,0.0,0.0
09/10/2022,02:00:17,0.001,0.0,0.0,0.0
09/10/2022,02:01:17,0.001,0.0,0.0,0.0
09/10/2022,02:02:18,0.001,0.0,0.0,0.0
09/10/2022,02:03:18,0.000,0.0,0.0,0.0
09/10/2022,02:04:18,0.001,0.0,0.0,0.0
09/10/2022,02:05:18,0.001,0.0,0.0,0.0
09/10/2022,02:06:18,0.001,0.0,0.0,0.0
09/10/2022,02:07:17,0.000,0.0,0.0,0.0
09/10/2022,02:08:18,0.001,0.0,0.0,0.0
09/10/2022,02:09:18,0.001,0.0,0.0,0.0
09/10/2022,02:10:18,0.000,0.0,0.0,0.0
09/10/2022,02:11:18,0.001,0.0,0.0,0.0
09/10/2022,02:12:18,-0.000,0.0,0.0,0.0
09/10/2022,02:13:17,0.001,0.0,0.0,0.0
09/10/2022,02:14:17,0.001,0.0,0.0,0.0
09/10/2022,02:15:18,0.001,0.0,0.0,0.0
09/10/2022,02:16:17,-0.000,0.0,0.0,0.0
09/10/2022,02:17:18,0.001,0.0,0.0,0.0
09/10/2022,02:18:18,0.001,0.0,0.0,0.0
09/10/2022,02:19:18,-0.000,0.0,0.0,0.0
09/10/2022,02:20:18,0.001,0.0,0.0,0.0
09/10/2022,02:21:17,0.001,0.0,0.0,0.0
09/10/2022,02:22:18,0.001,0.0,0.0,0.0
09/10/2022,02:23:18,0.001,0.0,0.0,0.0
09/10/2022,02:24:18,0.001,0.0,0.0,0.0
09/10/2022,02:25:18,-0.000,0.0,0.0,0.0
09/10/2022,02:26:17,0.001,0.0,0.0,0.0
09/10/2022,02:27:18,0.001,0.0,0.0,0.0
09/10/2022,02:28:19,0.001,0.0,0.0,0.0
09/10/2022,02:29:18,0.001,0.0,0.0,0.0
09/10/2022,02:30:17,0.001,0.0,0.0,0.0
09/10/2022,02:31:18,0.001,0.0,0.0,0.0
09/10/2022,02:32:17,0.001,0.0,0.0,0.0
09/10/2022,02:33:17,0.001,0.0,0.0,0.0
09/10/2022,02:34:18,0.001,0.0,0.0,0.0
09/10/2022,02:35:21,0.000,0.0,0.0,0.0
09/10/2022,02:36:19,0.001,0.0,0.0,0.0
09/10/2022,02:37:18,0.001,0.0,0.0,0.0
09/10/2022,02:38:17,-0.000,0.0,0.0,0.0
09/10/2022,02:39:19,0.001,0.0,0.0,0.0
09/10/2022,02:40:17,0.001,0.0,0.0,0.0
09/10/2022,02:41:18,0.001,0.0,0.0,0.0
09/10/2022,02:42:17,0.001,0.0,0.0,0.0
09/10/2022,02:43:17,0.001,0.0,0.0,0.0
09/10/2022,02:44:18,0.001,0.0,0.0,0.0
09/10/2022,02:45:17,0.001,0.0,0.0,0.0
09/10/2022,02:46:18,0.001,0.0,0.0,0.0
09/10/2022,02:47:17,0.001,0.0,0.0,0.0
09/10/2022,02:48:17,0.001,0.0,0.0,0.0
09/10/2022,02:49:18,0.001,0.0,0.0,0.0
09/10/2022,02:50:17,0.001,0.0,0.0,0.0
09/10/2022,02:51:18,0.001,0.0,0.0,0.0
09/10/2022,02:52:18,0.001,0.0,0.0,0.0
09/10/2022,02:53:18,0.001,0.0,0.0,0.0
09/10/2022,02:54:18,0.001,0.0,0.0,0.0
09/10/2022,02:55:18,0.001,0.0,0.0,0.0
09/10/2022,02:56:18,-0.000,0.0,0.0,0.0
09/10/2022,02:57:18,0.001,0.0,0.0,0.0
09/10/2022,02:58:18,0.001,0.0,0.0,0.0
09/10/2022,02:59:18,0.001,0.0,0.0,0.0
09/10/2022,03:00:18,0.001,0.0,0.0,0.0
09/10/2022,03:01:17,0.001,0.0,0.0,0.0
09/10/2022,03:02:17,0.001,0.0,0.0,0.0
09/10/2022,03:03:18,0.001,0.0,0.0,0.0
09/10/2022,03:04:18,0.001,0.0,0.0,0.0
09/10/2022,03:05:18,0.001,0.0,0.0,0.0
09/10/2022,03:06:18,0.001,0.0,0.0,0.0
09/10/2022,03:07:18,0.000,0.0,0.0,0.0
09/10/2022,03:08:18,0.001,0.0,0.0,0.0
09/10/2022,03:09:18,0.001,0.0,0.0,0.0
09/10/2022,03:10:19,0.001,0.0,0.0,0.0
09/10/2022,03:11:17,0.001,0.0,0.0,0.0
09/10/2022,03:12:17,0.001,0.0,0.0,0.0
09/10/2022,03:13:18,0.001,0.0,0.0,0.0
09/10/2022,03:14:17,0.001,0.0,0.0,0.0
09/10/2022,03:15:18,0.001,0.0,0.0,0.0
09/10/2022,03:16:18,0.001,0.0,0.0,0.0
09/10/2022,03:17:17,0.001,0.0,0.0,0.0
09/10/2022,03:18:17,0.001,0.0,0.0,0.0
09/10/2022,03:19:18,0.001,0.0,0.0,0.0
09/10/2022,03:20:17,0.001,0.0,0.0,0.0
09/10/2022,03:21:18,0.001,0.0,0.0,0.0
09/10/2022,03:22:18,0.001,0.0,0.0,0.0
09/10/2022,03:23:18,0.001,0.0,0.0,0.0
09/10/2022,03:24:18,0.001,0.0,0.0,0.0
09/10/2022,03:25:18,0.001,0.0,0.0,0.0
09/10/2022,03:26:18,0.001,0.0,0.0,0.0
09/10/2022,03:28:34,0.001,0.0,0.0,0.0
09/10/2022,03:29:18,0.001,0.0,0.0,0.0
09/10/2022,03:30:17,0.001,0.0,0.0,0.0
09/10/2022,03:31:18,0.001,0.0,0.0,0.0
09/10/2022,03:32:18,0.001,0.0,0.0,0.0
09/10/2022,03:33:18,0.001,0.0,0.0,0.0
09/10/2022,03:34:18,0.001,0.0,0.0,0.0
09/10/2022,03:35:17,0.001,0.0,0.0,0.0
09/10/2022,03:36:18,0.001,0.0,0.0,0.0
09/10/2022,03:37:18,0.001,0.0,0.0,0.0
09/10/2022,03:38:18,0.001,0.0,0.0,0.0
09/10/2022,03:39:18,0.001,0.0,0.0,0.0
09/10/2022,03:41:37,0.001,0.0,0.0,0.0
09/10/2022,03:42:18,0.001,0.0,0.0,0.0
09/10/2022,03:43:18,0.001,0.0,0.0,0.0
09/10/2022,03:44:17,0.001,0.0,0.0,0.0
09/10/2022,03:45:18,0.001,0.0,0.0,0.0
09/10/2022,03:46:18,0.001,0.0,0.0,0.0
09/10/2022,03:47:18,0.001,0.0,0.0,0.0
09/10/2022,03:48:18,0.001,0.0,0.0,0.0
09/10/2022,03:49:18,0.001,0.0,0.0,0.0
09/10/2022,03:50:18,0.001,0.0,0.0,0.0
09/10/2022,03:51:18,0.001,0.0,0.0,0.0
09/10/2022,03:52:18,0.001,0.0,0.0,0.0
09/10/2022,03:53:18,0.001,0.0,0.0,0.0
09/10/2022,03:54:18,0.001,0.0,0.0,0.0
09/10/2022,03:55:18,0.001,0.0,0.0,0.0
09/10/2022,03:56:17,0.001,0.0,0.0,0.0
09/10/2022,03:57:18,0.001,0.0,0.0,0.0
09/10/2022,03:58:18,0.001,0.0,0.0,0.0
09/10/2022,03:59:18,0.001,0.0,0.0,0.0
09/10/2022,04:00:18,0.000,0.0,0.0,0.0
09/10/2022,04:01:18,0.001,0.0,0.0,0.0
09/10/2022,04:02:18,0.001,0.0,0.0,0.0
09/10/2022,04:03:18,0.001,0.0,0.0,0.0
09/10/2022,04:04:18,0.001,0.0,0.0,0.0
09/10/2022,04:05:18,0.001,0.0,0.0,0.0
09/10/2022,04:06:18,0.001,0.0,0.0,0.0
09/10/2022,04:07:18,0.001,0.0,0.0,0.0
09/10/2022,04:08:18,0.001,0.0,0.0,0.0
09/10/2022,04:09:18,0.001,0.0,0.0,0.0
09/10/2022,04:10:18,0.001,0.0,0.0,0.0
09/10/2022,04:11:18,0.001,0.0,0.0,0.0
09/10/2022,04:12:18,0.001,0.0,0.0,0.0
09/10/2022,04:13:18,0.001,0.0,0.0,0.0
09/10/2022,04:14:18,0.001,0.0,0.0,0.0
09/10/2022,04:15:18,0.001,0.0,0.0,0.0
09/10/2022,04:16:18,0.001,0.0,0.0,0.0
09/10/2022,04:17:18,0.001,0.0,0.0,0.0
09/10/2022,04:18:18,0.001,0.0,0.0,0.0
09/10/2022,04:19:18,0.001,0.0,0.0,0.0
09/10/2022,04:20:18,0.001,0.0,0.0,0.0
09/10/2022,04:21:18,0.001,0.0,0.0,0.0
09/10/2022,04:22:18,0.001,0.0,0.0,0.0
09/10/2022,04:23:18,0.001,0.0,0.0,0.0
09/10/2022,04:24:18,0.001,0.0,0.0,0.0
09/10/2022,04:25:18,0.001,0.0,0.0,0.0
09/10/2022,04:26:18,0.001,0.0,0.0,0.0
09/10/2022,04:27:18,0.001,0.0,0.0,0.0
09/10/2022,04:28:18,0.001,0.0,0.0,0.0
09/10/2022,04:29:18,0.001,0.0,0.0,0.0
09/10/2022,04:30:18,0.001,0.0,0.0,0.0
09/10/2022,04:31:18,0.001,0.0,0.0,0.0
09/10/2022,04:32:18,0.001,0.0,0.0,0.0
09/10/2022,04:33:18,0.001,0.0,0.0,0.0
09/10/2022,04:34:18,0.001,0.0,0.0,0.0
09/10/2022,04:35:18,0.001,0.0,0.0,0.0
09/10/2022,04:36:18,0.001,0.0,0.0,0.0
09/10/2022,04:37:18,0.001,0.0,0.0,0.0
09/10/2022,04:38:18,0.001,0.0,0.0,0.0
09/10/2022,04:39:18,0.001,0.0,0.0,0.0
09/10/2022,04:40:18,0.001,0.0,0.0,0.0
09/10/2022,04:41:18,0.001,0.0,0.0,0.0
09/10/2022,04:42:18,0.001,0.0,0.0,0.0
09/10/2022,04:43:18,0.001,0.0,0.0,0.0
09/10/2022,04:44:18,0.001,0.0,0.0,0.0
09/10/2022,04:45:18,0.001,0.0,0.0,0.0
09/10/2022,04:46:18,0.001,0.0,0.0,0.0
09/10/2022,04:47:18,0.001,0.0,0.0,0.0
09/10/2022,04:48:18,0.001,0.0,0.0,0.0
09/10/2022,04:49:17,0.001,0.0,0.0,0.0
09/10/2022,04:50:18,0.001,0.0,0.0,0.0
09/10/2022,04:51:18,0.001,0.0,0.0,0.0
09/10/2022,04:52:18,0.001,0.0,0.0,0.0
09/10/2022,04:53:18,0.001,0.0,0.0,0.0
09/10/2022,04:54:18,0.001,0.0,0.0,0.0
09/10/2022,04:55:18,0.001,0.0,0.0,0.0
09/10/2022,04:56:18,0.001,0.0,0.0,0.0
09/10/2022,04:57:18,0.001,0.0,0.0,0.0
09/10/2022,04:58:18,0.001,0.0,0.0,0.0
09/10/2022,04:59:18,0.001,0.0,0.0,0.0
09/10/2022,05:00:18,0.001,0.0,0.0,0.0
09/10/2022,05:01:18,0.001,0.0,0.0,0.0
09/10/2022,05:02:18,0.001,0.0,0.0,0.0
09/10/2022,05:03:18,0.001,0.0,0.0,0.0
09/10/2022,05:04:18,0.001,0.0,0.0,0.0
09/10/2022,05:05:18,0.001,0.0,0.0,0.0
09/10/2022,05:06:18,0.001,0.0,0.0,0.0
09/10/2022,05:07:18,0.001,0.0,0.0,0.0
09/10/2022,05:08:18,0.001,0.0,0.0,0.0
09/10/2022,05:09:18,0.001,0.0,0.0,0.0
09/10/2022,05:10:18,0.001,0.0,0.0,0.0
09/10/2022,05:11:18,0.001,0.0,0.0,0.0
09/10/2022,05:12:18,0.001,0.0,0.0,0.0
09/10/2022,05:13:18,0.001,0.0,0.0,0.0
09/10/2022,05:14:18,0.001,0.0,0.0,0.0
09/10/2022,05:15:18,0.001,0.0,0.0,0.0
09/10/2022,05:16:18,0.001,0.0,0.0,0.0
09/10/2022,05:17:19,0.001,0.0,0.0,0.0
09/10/2022,05:18:18,0.001,0.0,0.0,0.0
09/10/2022,05:19:18,0.001,0.0,0.0,0.0
09/10/2022,05:20:18,0.001,0.0,0.0,0.0
09/10/2022,05:21:18,0.001,0.0,0.0,0.0
09/10/2022,05:22:18,0.001,0.0,0.0,0.0
09/10/2022,05:23:18,0.001,0.0,0.0,0.0
09/10/2022,05:24:18,0.001,0.0,0.0,0.0
09/10/2022,05:25:18,0.001,0.0,0.0,0.0
09/10/2022,05:26:18,0.001,0.0,0.0,0.0
09/10/2022,05:27:18,0.001,0.0,0.0,0.0
09/10/2022,05:28:18,0.001,0.0,0.0,0.0
09/10/2022,05:29:18,0.001,0.0,0.0,0.0
09/10/2022,05:30:18,0.001,0.0,0.0,0.0
09/10/2022,05:31:18,0.001,0.0,0.0,0.0
09/10/2022,05:32:18,0.001,0.0,0.0,0.0
09/10/2022,05:33:18,0.001,0.0,0.0,0.0
09/10/2022,05:34:18,0.001,0.0,0.0,0.0
09/10/2022,05:35:19,0.001,0.0,0.0,0.0
09/10/2022,05:36:18,0.001,0.0,0.0,0.0
09/10/2022,05:38:35,0.001,0.0,0.0,0.0
09/10/2022,05:39:18,0.001,0.0,0.0,0.0
09/10/2022,05:40:18,0.001,0.0,0.0,0.0
09/10/2022,05:41:18,0.001,0.0,0.0,0.0
09/10/2022,05:42:18,0.001,0.0,0.0,0.0
09/10/2022,05:43:18,0.002,0.0,0.0,0.0
09/10/2022,05:44:18,0.001,0.0,0.0,0.0
09/10/2022,05:45:18,0.001,0.0,0.0,0.0
09/10/2022,05:46:18,0.001,0.0,0.0,0.0
09/10/2022,05:47:18,0.001,0.0,0.0,0.0
09/10/2022,05:48:18,0.001,0.0,0.0,0.0
09/10/2022,05:49:18,0.001,0.0,0.0,0.0
09/10/2022,05:50:18,0.001,0.0,0.0,0.0
09/10/2022,05:51:18,0.000,0.0,0.0,0.0
09/10/2022,05:52:18,0.001,0.0,0.0,0.0
09/10/2022,05:53:18,0.001,0.0,0.0,0.0
09/10/2022,05:54:18,0.001,0.0,0.0,0.0
09/10/2022,05:55:18,0.001,0.0,0.0,0.0
09/10/2022,05:56:18,0.001,0.0,0.0,0.0
09/10/2022,05:57:18,0.001,0.0,0.0,0.0
09/10/2022,05:58:18,0.001,0.0,0.0,0.0
09/10/2022,05:59:18,0.001,0.0,0.0,0.0
09/10/2022,06:00:18,0.002,0.0,0.0,0.0
09/10/2022,06:01:19,0.001,0.0,0.0,0.0
09/10/2022,06:02:18,0.002,0.0,0.0,0.0
09/10/2022,06:03:18,0.001,0.0,0.0,0.0
09/10/2022,06:04:19,0.001,0.0,0.0,0.0
09/10/2022,06:05:18,0.001,0.0,0.0,0.0
09/10/2022,06:06:18,0.002,0.0,0.0,0.0
09/10/2022,06:07:18,0.001,0.0,0.0,0.0
09/10/2022,06:08:18,0.001,0.0,0.0,0.0
09/10/2022,06:09:18,0.001,0.0,0.0,0.0
09/10/2022,06:10:18,0.002,0.0,0.0,0.0
09/10/2022,06:11:18,0.002,0.0,0.0,0.0
09/10/2022,06:12:18,0.003,0.0,0.0,0.0
09/10/2022,06:13:18,0.003,0.0,0.0,0.0
09/10/2022,06:14:18,0.003,0.0,0.0,0.0
09/10/2022,06:15:18,0.003,0.0,0.0,0.0
09/10/2022,06:16:19,0.003,0.0,0.0,0.0
09/10/2022,06:17:18,0.003,0.0,0.0,0.0
09/10/2022,06:18:51,0.003,0.0,0.0,0.0
09/10/2022,06:21:38,0.003,0.0,0.0,0.0
09/10/2022,06:22:18,0.004,0.0,0.0,0.0
09/10/2022,06:23:18,0.004,0.0,0.0,0.0
09/10/2022,06:24:19,0.005,0.0,0.0,0.0
09/10/2022,06:25:18,0.005,0.0,0.0,0.0
09/10/2022,06:26:18,0.005,0.0,0.0,0.0
09/10/2022,06:27:18,0.005,0.0,0.0,0.0
09/10/2022,06:28:18,0.006,0.0,0.0,0.0
09/10/2022,06:29:18,0.006,0.0,0.0,0.0
09/10/2022,06:30:18,0.006,0.0,0.0,0.0
09/10/2022,06:31:19,0.006,0.0,0.0,0.0
09/10/2022,06:32:18,0.007,0.0,0.0,0.0
09/10/2022,06:33:18,0.008,0.0,0.0,0.0
09/10/2022,06:34:18,0.009,0.0,0.001,0.001
09/10/2022,06:35:18,0.008,0.0,0.001,0.0
09/10/2022,06:36:18,0.009,0.0,0.001,0.0
09/10/2022,06:37:18,0.009,0.0,0.001,0.0
09/10/2022,06:38:18,0.009,0.0,0.001,0.0
09/10/2022,06:39:18,0.010,0.0,0.001,0.0
09/10/2022,06:40:19,0.010,0.0,0.001,0.0
09/10/2022,06:41:19,0.010,0.0,0.002,0.001
09/10/2022,06:42:19,0.012,0.0,0.002,0.0
09/10/2022,06:43:18,0.012,0.0,0.002,0.0
09/10/2022,06:44:18,0.012,0.0,0.002,0.0
09/10/2022,06:45:18,0.013,0.0,0.002,0.0
09/10/2022,06:46:18,0.013,0.0,0.003,0.001
09/10/2022,06:47:18,0.014,0.0,0.003,0.0
09/10/2022,06:48:18,0.014,0.0,0.003,0.0
09/10/2022,06:49:19,0.014,0.0,0.003,0.0
09/10/2022,06:50:18,0.017,0.0,0.004,0.001
09/10/2022,06:51:18,0.017,0.0,0.004,0.0
09/10/2022,06:52:18,0.017,0.0,0.004,0.0
09/10/2022,06:53:19,0.018,0.0,0.004,0.0
09/10/2022,06:54:18,0.018,0.0,0.005,0.001
09/10/2022,06:55:18,0.019,0.0,0.005,0.0
09/10/2022,06:56:19,0.021,0.0,0.005,0.0
09/10/2022,06:57:18,0.020,0.0,0.006,0.001
09/10/2022,06:58:18,0.021,0.0,0.006,0.0
09/10/2022,06:59:18,0.022,0.0,0.006,0.0
09/10/2022,07:00:18,0.022,0.0,0.007,0.001
09/10/2022,07:01:18,0.023,0.0,0.007,0.0
09/10/2022,07:02:18,0.024,0.0,0.008,0.001
09/10/2022,07:03:18,0.025,0.0,0.008,0.0
09/10/2022,07:04:18,0.027,0.0,0.008,0.0
09/10/2022,07:05:18,0.026,0.0,0.009,0.001
09/10/2022,07:06:18,0.028,0.0,0.009,0.0
09/10/2022,07:07:18,0.029,0.0,0.01,0.001
09/10/2022,07:08:18,0.030,0.0,0.01,0.0
09/10/2022,07:09:19,0.031,0.0,0.011,0.001
09/10/2022,07:10:17,0.032,0.0,0.011,0.0
09/10/2022,07:11:18,0.033,0.0,0.012,0.001
09/10/2022,07:12:18,0.034,0.0,0.012,0.0
09/10/2022,07:13:18,0.035,0.0,0.013,0.001
09/10/2022,07:14:19,0.036,0.0,0.013,0.0
09/10/2022,07:15:18,0.037,0.0,0.014,0.001
09/10/2022,07:16:18,0.038,0.0,0.015,0.001
09/10/2022,07:17:18,0.039,0.0,0.015,0.0
09/10/2022,07:18:18,0.041,0.0,0.016,0.001
09/10/2022,07:19:18,0.042,0.0,0.017,0.001
09/10/2022,07:20:18,0.043,0.0,0.017,0.0
09/10/2022,07:21:19,0.043,0.0,0.018,0.001
09/10/2022,07:22:18,0.046,0.0,0.019,0.001
09/10/2022,07:23:18,0.047,0.0,0.02,0.001
09/10/2022,07:24:18,0.047,0.0,0.02,0.0
09/10/2022,07:25:18,0.049,0.0,0.021,0.001
09/10/2022,07:26:19,0.051,0.0,0.022,0.001
09/10/2022,07:27:18,0.052,0.0,0.023,0.001
09/10/2022,07:28:18,0.052,0.0,0.024,0.001
09/10/2022,07:29:18,0.055,0.0,0.025,0.001
09/10/2022,07:30:18,0.056,0.0,0.026,0.001
09/10/2022,07:31:18,0.058,0.0,0.027,0.001
09/10/2022,07:32:18,0.059,0.0,0.028,0.001
09/10/2022,07:33:18,0.061,0.0,0.029,0.001
09/10/2022,07:34:18,0.061,0.0,0.03,0.001
09/10/2022,07:35:19,0.064,0.0,0.031,0.001
09/10/2022,07:36:18,0.067,0.0,0.032,0.001
09/10/2022,07:37:19,0.067,0.0,0.033,0.001
09/10/2022,07:38:18,0.070,0.0,0.034,0.001
09/10/2022,07:39:18,0.072,0.0,0.035,0.001
09/10/2022,07:40:19,0.073,0.0,0.036,0.001
09/10/2022,07:41:18,0.074,0.0,0.038,0.002
09/10/2022,07:42:19,0.076,0.0,0.039,0.001
09/10/2022,07:43:18,0.078,0.0,0.04,0.001
09/10/2022,07:44:18,0.080,0.0,0.041,0.001
09/10/2022,07:45:19,0.082,0.0,0.043,0.002
09/10/2022,07:46:18,0.084,0.0,0.044,0.001
09/10/2022,07:47:18,0.086,0.0,0.046,0.002
09/10/2022,07:48:19,0.087,0.0,0.047,0.001
09/10/2022,07:49:18,0.090,0.0,0.048,0.001
09/10/2022,07:50:18,0.092,0.0,0.05,0.002
09/10/2022,07:51:19,0.094,0.0,0.052,0.002
09/10/2022,07:52:18,0.096,0.0,0.053,0.001
09/10/2022,07:53:18,0.098,0.0,0.055,0.002
09/10/2022,07:54:18,0.100,0.0,0.056,0.001
09/10/2022,07:55:18,0.102,0.0,0.058,0.002
09/10/2022,07:56:18,0.104,0.0,0.06,0.002
09/10/2022,07:57:18,0.107,0.0,0.062,0.002
09/10/2022,07:58:19,0.110,0.0,0.063,0.001
09/10/2022,07:59:18,0.110,0.0,0.065,0.002
09/10/2022,08:00:18,0.114,0.0,0.067,0.002
09/10/2022,08:01:18,0.116,0.0,0.069,0.002
09/10/2022,08:02:18,0.118,0.0,0.071,0.002
09/10/2022,08:03:18,0.120,0.0,0.073,0.002
09/10/2022,08:04:18,0.122,0.0,0.075,0.002
09/10/2022,08:05:18,0.124,0.0,0.077,0.002
09/10/2022,08:06:18,0.128,0.0,0.079,0.002
09/10/2022,08:07:19,0.130,0.0,0.081,0.002
09/10/2022,08:08:18,0.134,0.0,0.083,0.002
09/10/2022,08:09:18,0.135,0.0,0.086,0.003
09/10/2022,08:10:19,0.137,0.0,0.088,0.002
09/10/2022,08:11:18,0.140,0.0,0.09,0.002
09/10/2022,08:12:19,0.143,0.0,0.093,0.003
09/10/2022,08:13:19,0.145,0.0,0.095,0.002
09/10/2022,08:14:18,0.149,0.0,0.097,0.002
09/10/2022,08:15:19,0.151,0.0,0.1,0.003
09/10/2022,08:16:18,0.154,0.0,0.102,0.002
09/10/2022,08:17:19,0.156,0.0,0.105,0.003
09/10/2022,08:18:18,0.159,0.0,0.108,0.003
09/10/2022,08:19:18,0.163,0.0,0.11,0.002
09/10/2022,08:20:18,0.165,0.0,0.113,0.003
09/10/2022,08:21:18,0.168,0.0,0.116,0.003
09/10/2022,08:22:18,0.170,0.0,0.119,0.003
09/10/2022,08:23:18,0.173,0.0,0.122,0.003
09/10/2022,08:24:18,0.177,0.0,0.124,0.002
09/10/2022,08:25:18,0.180,0.0,0.127,0.003
09/10/2022,08:26:18,0.182,0.0,0.13,0.003
09/10/2022,08:27:18,0.186,0.0,0.134,0.004
09/10/2022,08:28:19,0.189,0.0,0.137,0.003
09/10/2022,08:29:18,0.191,0.0,0.14,0.003
09/10/2022,08:30:18,0.195,0.0,0.143,0.003
09/10/2022,08:31:19,0.199,0.0,0.146,0.003
09/10/2022,08:32:18,0.201,0.0,0.15,0.004
09/10/2022,08:33:18,0.204,0.0,0.153,0.003
09/10/2022,08:34:19,0.206,0.0,0.156,0.003
09/10/2022,08:35:18,0.211,0.0,0.16,0.004
09/10/2022,08:36:18,0.214,0.0,0.163,0.003
09/10/2022,08:37:18,0.218,1.0,0.167,0.004
09/10/2022,08:38:19,0.220,1.0,0.171,0.004
09/10/2022,08:39:18,0.225,1.0,0.174,0.003
09/10/2022,08:40:18,0.227,1.0,0.178,0.004
09/10/2022,08:41:18,0.230,1.0,0.182,0.004
09/10/2022,08:42:19,0.234,1.0,0.186,0.004
09/10/2022,08:43:18,0.236,1.0,0.19,0.004
09/10/2022,08:44:18,0.241,1.0,0.194,0.004
09/10/2022,08:45:18,0.245,1.0,0.198,0.004
09/10/2022,08:46:18,0.247,1.0,0.202,0.004
09/10/2022,08:47:18,0.251,1.0,0.206,0.004
09/10/2022,08:48:19,0.253,1.0,0.21,0.004
09/10/2022,08:49:18,0.257,1.0,0.214,0.004
09/10/2022,08:50:19,0.261,1.0,0.219,0.005
09/10/2022,08:51:19,0.264,1.0,0.223,0.004
09/10/2022,08:52:18,0.269,1.0,0.228,0.005
09/10/2022,08:53:18,0.272,1.0,0.232,0.004
09/10/2022,08:54:18,0.276,1.0,0.237,0.005
09/10/2022,08:55:19,0.279,1.0,0.241,0.004
09/10/2022,08:56:18,0.283,1.0,0.246,0.005
09/10/2022,08:57:18,0.287,1.0,0.251,0.005
09/10/2022,08:58:18,0.291,1.0,0.256,0.005
09/10/2022,08:59:19,0.295,1.0,0.26,0.004
09/10/2022,09:00:18,0.298,1.0,0.265,0.005
09/10/2022,09:01:18,0.301,1.0,0.27,0.005
09/10/2022,09:02:18,0.306,1.0,0.275,0.005
09/10/2022,09:03:19,0.310,1.0,0.281,0.006
09/10/2022,09:04:18,0.314,1.0,0.286,0.005
09/10/2022,09:05:19,0.315,1.0,0.291,0.005
09/10/2022,09:06:18,0.321,1.0,0.296,0.005
09/10/2022,09:07:18,0.324,1.0,0.302,0.006
09/10/2022,09:08:19,0.328,1.0,0.307,0.005
09/10/2022,09:09:18,0.331,1.0,0.313,0.006
09/10/2022,09:10:18,0.336,1.0,0.318,0.005
09/10/2022,09:11:18,0.340,1.0,0.324,0.006
09/10/2022,09:12:20,0.343,1.0,0.33,0.006
09/10/2022,09:13:19,0.348,1.0,0.335,0.005
09/10/2022,09:14:19,0.351,1.0,0.341,0.006
09/10/2022,09:15:19,0.355,1.0,0.347,0.006
09/10/2022,09:16:18,0.360,1.0,0.353,0.006
09/10/2022,09:18:36,0.368,1.0,0.367,0.014
09/10/2022,09:19:18,0.370,1.0,0.371,0.004
09/10/2022,09:20:18,0.375,1.0,0.377,0.006
09/10/2022,09:21:18,0.378,1.0,0.384,0.007
09/10/2022,09:22:18,0.382,1.0,0.39,0.006
09/10/2022,09:23:18,0.386,1.0,0.396,0.006
09/10/2022,09:24:19,0.392,1.0,0.403,0.007
09/10/2022,09:25:19,0.395,1.0,0.409,0.006
09/10/2022,09:26:19,0.399,1.0,0.416,0.007
09/10/2022,09:27:18,0.403,1.0,0.423,0.007
09/10/2022,09:28:18,0.407,1.0,0.43,0.007
09/10/2022,09:29:19,0.411,1.0,0.436,0.006
09/10/2022,09:30:18,0.415,1.0,0.443,0.007
09/10/2022,09:31:18,0.418,1.0,0.45,0.007
09/10/2022,09:32:19,0.424,1.0,0.457,0.007
09/10/2022,09:33:18,0.427,1.0,0.464,0.007
09/10/2022,09:34:19,0.431,1.0,0.471,0.007
09/10/2022,09:35:19,0.436,1.0,0.479,0.008
09/10/2022,09:36:19,0.439,1.0,0.486,0.007
09/10/2022,09:37:18,0.443,1.0,0.493,0.007
09/10/2022,09:38:19,0.448,1.0,0.501,0.008
09/10/2022,09:39:18,0.450,1.0,0.508,0.007
09/10/2022,09:40:18,0.456,1.0,0.516,0.008
09/10/2022,09:41:19,0.460,1.0,0.523,0.007
09/10/2022,09:42:18,0.464,1.0,0.531,0.008
09/10/2022,09:43:18,0.467,1.0,0.539,0.008
09/10/2022,09:44:19,0.472,1.0,0.547,0.008
09/10/2022,09:45:19,0.476,1.0,0.555,0.008
09/10/2022,09:46:18,0.480,1.0,0.563,0.008
09/10/2022,09:47:19,0.485,1.0,0.571,0.008
09/10/2022,09:48:19,0.488,1.0,0.579,0.008
09/10/2022,09:49:18,0.492,1.0,0.587,0.008
09/10/2022,09:50:19,0.497,1.0,0.595,0.008
09/10/2022,09:51:19,0.502,1.0,0.603,0.008
09/10/2022,09:52:19,0.506,1.0,0.612,0.009
09/10/2022,09:53:18,0.510,1.0,0.62,0.008
09/10/2022,09:54:18,0.515,1.0,0.629,0.009
09/10/2022,09:55:19,0.517,1.0,0.638,0.009
09/10/2022,09:56:18,0.522,1.0,0.646,0.008
09/10/2022,09:57:18,0.526,1.0,0.655,0.009
09/10/2022,09:58:19,0.531,1.0,0.664,0.009
09/10/2022,09:59:18,0.532,1.0,0.673,0.009
09/10/2022,10:00:18,0.537,1.0,0.681,0.008
09/10/2022,10:01:19,0.542,1.0,0.69,0.009
09/10/2022,10:02:18,0.545,1.0,0.7,0.01
09/10/2022,10:03:21,0.550,1.0,0.709,0.009
09/10/2022,10:04:20,0.553,1.0,0.718,0.009
09/10/2022,10:05:20,0.559,1.0,0.727,0.009
09/10/2022,10:06:19,0.561,1.0,0.736,0.009
09/10/2022,10:07:18,0.566,1.0,0.746,0.01
09/10/2022,10:08:19,0.566,1.0,0.755,0.009
09/10/2022,10:09:18,0.568,1.0,0.765,0.01
09/10/2022,10:10:18,0.574,1.0,0.774,0.009
09/10/2022,10:11:19,0.575,1.0,0.784,0.01
09/10/2022,10:12:18,0.580,1.0,0.793,0.009
09/10/2022,10:13:19,0.586,1.0,0.803,0.01
09/10/2022,10:14:18,0.589,1.0,0.813,0.01
09/10/2022,10:15:19,0.597,1.0,0.823,0.01